Regional Weather Roundup
Issued by NWS

Home | Current Version | Previous Version | Graphics & Text | Print | Product List | Glossary Off
Versions: 1 2 3 4 5 6 7 8 9 10 11 12 13 14 15 16 17 18 19 20 21 22 23 24 25 26 27 28 29 30 31 32 33 34 35 36 37 38 39 40 41 42 43 44 45 46 47 48 49 50

000
ASUS44 KMEG 181710
RWRTN
TENNESSEE HOURLY STATE WEATHER ROUNDUP
NATIONAL WEATHER SERVICE MEMPHIS TN
1200 PM CDT FRI AUG 18 2017

TNZ002-004-019-021-049-052-054-088>092-181800-
WEST TENNESSEE

CITY           SKY/WX    TMP DP  RH WIND       PRES   REMARKS
MEMPHIS INTL   MOSUNNY   87  70  56 NW7       30.03F HX  92
NWS MEMPHIS      N/A     85 N/A N/A MISG        N/A
JACKSON        SUNNY     85  65  51 W9        30.02F
DYERSBURG      SUNNY     84  67  56 W8        30.03S
SOMERVILLE     SUNNY     84  68  58 NW7       30.02F
COVINGTON      SUNNY     84  66  54 VRB5      30.02F
UNION CITY     SUNNY     84  68  58 W10       30.00S
BOLIVAR        SUNNY     84  70  61 VRB7G14   30.02F
PARIS          SUNNY     82  66  57 VRB5G14   30.00F
HUNTINGDON     SUNNY     84  68  58 VRB7G14   30.01S
LEXINGTON      SUNNY     84  68  58 W7        30.01F
SELMER         MOSUNNY   82  70  65 W6G14     30.02F
SAVANNAH       MOSUNNY   84  70  61 NW8G17    30.02F
$$

TNZ008-025-027-028-033-062-065-066-181800-
NORTH MIDDLE TENNESSEE

CITY           SKY/WX    TMP DP  RH WIND       PRES   REMARKS
NASHVILLE      MOSUNNY   85  65  51 W8        30.00F
PORTLAND       MOSUNNY   81  66  61 W7G16     30.00S
CLARKSVILLE    MOSUNNY   83  63  50 W7G16     30.00F
SMYRNA         MOSUNNY   86  68  54 W13       30.00F
COOKEVILLE     MOSUNNY   82  70  65 VRB6      30.00F
GALLATIN       MOSUNNY   86  66  51 W8G15     30.02S
CROSSVILLE     MOSUNNY   80  66  62 W14       30.05S
$$

TNZ061-075-076-078-094-096-097-181800-
SOUTH MIDDLE TENNESSEE

CITY           SKY/WX    TMP DP  RH WIND       PRES   REMARKS
FAYETTEVILLE   MOSUNNY   84  68  58 W8G18     30.03S
TULLAHOMA        N/A     82  66  57 NW10      30.04S
WINCHESTER     SUNNY     84  70  61 W8        30.02F
MCMINNVILLE    SUNNY     84  72  65 W13       30.02S
COLUMBIA       MOSUNNY   84  66  54 SW14      29.99F
SHELBYVILLE    MOSUNNY   84  70  61 W8G16     30.01F
$$

TNZ017-018-042-046-047-181800-
NORTHEAST TENNESSEE

CITY           SKY/WX    TMP DP  RH WIND       PRES   REMARKS
TRI CITIES     PTSUNNY   80  72  76 SW13      29.99F
ELIZABETHTON   FOG       75  72  88 NW10G18   30.00S VSB 1
$$

TNZ012-013-036-069-073-074-181800-
CENTRAL EAST TENNESSEE

CITY           SKY/WX    TMP DP  RH WIND       PRES   REMARKS
KNOXVILLE      PTSUNNY   82  72  71 SW9       29.98F
OAK RIDGE      MOSUNNY   84  69  60 VRB5      29.99F
DOWNTOWN KNOXV MOSUNNY   82  75  78 SW6G14    29.97F
GATLINBURG     PTSUNNY   81  72  74 SW9       29.99S
MORRISTOWN     CLOUDY    77  75  94 W10       29.99F
JACKSBORO      SUNNY     84  68  58 VRB3G13   30.01F
$$

TNZ083-085-099-181800-
SOUTHEAST TENNESSEE

CITY           SKY/WX    TMP DP  RH WIND       PRES   REMARKS
CHATTANOOGA    PTSUNNY   87  67  51 NW7       30.00S HX  90
DAYTON         MOSUNNY   86  72  62 W6        29.98F HX  92
$$

SKY/WX REPORTED AS FAIR MEANS FEW OR NO CLOUDS BELOW
12 THOUSAND FEET.





USA.gov is the U.S. government's official web portal to all federal, state and local government web resources and services.